sat.trackr.live / text

‹ back to catalog

STARLINK-36805

NORAD 68116 · 2026-044R

PAYLOAD ACTIVE UNKNOWN

§ Identity

Operator
Country
US
Launch date
2026-03-08
Launch site
AFWTR
Launch vehicle
Mass (kg)
RCS (m²)

Purposes: comms

External: N2YO · Heavens-Above · Gunter

§ Orbital elements

Epoch: 2026-09-19T14:50:05.477280Z

Period
93.91 min
Inclination
97.2845°
Eccentricity
0.0001864
Mean motion
15.33444969 rev/d
Perigee alt
464.3 km
Apogee alt
466.8 km
Semi-major
6,843.7 km
B*
5.7391e-4
RAAN
221.5970°
Arg perigee
89.4150°
Mean anomaly
270.7306°
Rev number
3,130

§ Raw data

STARLINK-368051 68116U 26044R   26262.61811895  .00018499  00000+0  57391-3 0  99932 68116  97.2845 221.5970 0001864  89.4150 270.7306 15.33444969 31301

JSON: /api/v1/satellites/68116 · /tle

For live sub-satellite position, see the globe view (requires WebGL).

§ Visibility from observer

Set your observer location to see the next 7 days of passes ≥ 10°. The values pass through the URL so the page stays shareable.

No JS? Fill the form by hand. The geolocation button needs JavaScript.